Location: *
(43.0409°N, 0.1694°E)
Time: 16:31:55
(UTC+00:00)

FENGYUN 1C DEB - Pass Details

Date: 26 June 2024
Orbit: 854 x 916 km, 98.8° (Epoch: 11 July)

Event Time Altitude Azimuth Distance (km) Brightness Sun altitude
Rises 20:49:31 0° 218° (SW) 3,514 ? -10.2°
Reaches altitude 10° 20:53:24 10° 245° (WSW) 2,591 ? -10.7°
Maximum altitude 20:56:02 13° 272° (W) 2,374 ? -11.0°
Drops below altitude 10° 20:58:41 10° 300° (WNW) 2,610 ? -11.3°
Sets 21:02:40 0° 327° (NNW) 3,563 ? -11.8°
